Flag for Australia Weather past 2 weeks in Melbourne, Victoria, Australia

Now
46 °F

Overcast.


Feels Like: 44 °F
Forecast: 41 / 55 °F
Wind: 6 mph from West

Location: Melbourne Airport

Current Time: Aug 31, 2015 at 12:57:54 AM

Latest Report: Aug 31, 2015 at 12:00 AM


Visibility: N/A

Pressure: 30.18 "Hg

Humidity: 82%

Dew point: 41 °F

Location of MelbourneLocation

Historic Weather in Melbourne — Graph

°F

Melbourne temperature yesterday

Maximum temperature yesterday: 52 °F (at 12:00 PM)
Minimum temperature yesterday: 45 °F (at 2:00 AM)
Average temperature yesterday: 48 °F

Past Weeks' High & Low Weather Summary

 TemperatureHumidityPressure
High64 °F (Aug 22, 12:00 PM)100% (Aug 27, 9:30 AM)30.39 "Hg (Aug 27, 9:30 AM)
Low39 °F (Aug 16, 2:00 AM)39% (Aug 21, 12:30 PM)29.89 "Hg (Aug 21, 6:30 PM)
Average50 °F74%30.18 "Hg
* Reported Aug 15 11:00 PM — Aug 30 11:30 PM, Melbourne, Weather by CustomWeather, © 2015

Note: Actual official high and low records may vary slightly from our data, if they occured in-between our weather recording intervals... More about our weather records

Advertising

Melbourne weather history for previous 24 hours

 ConditionsComfort  
Time TempWeatherWind HumidityBarometerVisibility
11:30 PM
Sun, Aug 30
46 °FOvercast.6 mph82%30.21 "HgN/A
11:00 PM46 °FPassing clouds.5 mph82%30.21 "HgN/A
10:00 PM46 °FPassing clouds.6 mph82%30.21 "HgN/A
9:30 PM46 °FPartly cloudy.6 mph82%30.21 "HgN/A
9:00 PM46 °FPartly cloudy.7 mph82%30.21 "HgN/A
8:30 PM48 °FPassing clouds.9 mph76%30.21 "HgN/A
8:00 PM46 °FPassing clouds.6 mph82%30.21 "HgN/A
7:30 PM46 °FPassing clouds.6 mph76%30.21 "HgN/A
7:00 PM46 °FPassing clouds.8 mph76%30.21 "HgN/A
6:00 PM48 °FPassing clouds.9 mph76%30.21 "HgN/A
5:30 PM48 °FPassing clouds.10 mph76%30.21 "HgN/A
5:00 PM50 °FPassing clouds.12 mph71%30.21 "HgN/A
4:30 PM50 °FPartly sunny.10 mph71%30.21 "HgN/A
4:00 PM50 °FPartly sunny.13 mph71%30.21 "HgN/A
3:30 PM52 °FPartly sunny.13 mph67%30.21 "HgN/A
3:00 PM52 °FPartly sunny.14 mph67%30.21 "HgN/A
2:30 PM52 °FBroken clouds.12 mph67%30.21 "HgN/A
1:30 PM52 °FPartly sunny.13 mph67%30.21 "HgN/A
1:00 PM52 °FPartly sunny.12 mph72%30.21 "HgN/A
12:30 PM52 °FPartly sunny.14 mph67%30.24 "HgN/A
12:00 PM52 °FPartly sunny.10 mph62%30.24 "HgN/A
11:00 AM50 °FBroken clouds.12 mph71%30.27 "HgN/A
10:30 AM50 °FPartly sunny.10 mph76%30.27 "HgN/A
10:00 AM50 °FPartly sunny.12 mph82%30.27 "HgN/A
9:30 AM48 °FPartly sunny.13 mph87%30.27 "HgN/A
9:00 AM48 °FPartly sunny.13 mph82%30.27 "HgN/A
8:30 AM46 °FDrizzle. Partly sunny.10 mph87%30.27 "HgN/A
8:00 AM46 °FPartly sunny.8 mph87%30.27 "HgN/A
7:30 AM46 °FPartly sunny.9 mph87%30.27 "HgN/A
7:00 AM45 °FPartly sunny.9 mph93%30.24 "HgN/A
6:30 AM45 °FSprinkles. Partly sunny.10 mph93%30.24 "HgN/A
6:00 AM45 °FPartly sunny.9 mph93%30.24 "HgN/A
5:00 AM45 °FPassing clouds.12 mph93%30.24 "HgN/A
4:50 AM45 °FPartly cloudy.10 mph100%30.24 "HgN/A
4:30 AM45 °FPassing clouds.10 mph100%30.24 "HgN/A
4:00 AM45 °FPassing clouds.10 mph100%30.24 "HgN/A
3:00 AM46 °FScattered showers. Partly cloudy.13 mph93%30.24 "HgN/A
2:30 AM45 °FSprinkles. Passing clouds.10 mph100%30.24 "HgN/A
2:00 AM45 °FSprinkles. Partly cloudy.10 mph100%30.24 "HgN/A
1:30 AM46 °FPassing clouds.10 mph93%30.27 "Hg3 mi
1:00 AM46 °FPassing clouds.12 mph93%30.27 "Hg4 mi
12:30 AM46 °FPartly cloudy.12 mph93%30.27 "Hg4 mi
12:00 AM46 °FSprinkles. Partly cloudy.10 mph93%30.27 "HgN/A
Weather by CustomWeather, © 2015

See weather overviewHow to use our weather pages